C/2000 H1 ( LINEAR )

Japanese version
Home page
Updated on June 11, 2000

---------------------------------------------------------------------

* Profile

Discovery Date April 26, 2000
Magnitude 18.7 mag
Discoverer Lincoln Laboratory Near-Earth Asteroid Research project

* Orbital Elements

   Improved parabolic orbital elements by K. Muraoka,
  from 81 observations  2000 Apr. 26 to May 13,  m.e. = +/- 0".75.

          T  =  2000 Jan. 28.4583  TT
       Peri. =   78.7098
       Node  =  356.4377   (2000.0)
       Incl. =  118.2401
          q  =    3.635720  AU
          e  =    1.0

* Finding Charts

* Magnitudes Graph

        m1 = 9.5 + 5 log d + 10.0 log r

---------------------------------------------------------------------

The orbital elements are calculated by Kenji Muraoka.
The charts are made with StellaNavigator Ver.2.0 for Windows (AstroArts / ASCII).
The magnitudes graphs are made with Comet for Windows.

---------------------------------------------------------------------

Copyright(C) Seiichi Yoshida (comet@aerith.net). All rights reserved.